Regional Weather Roundup
Issued by NWS Columbia, SC

Home | Current Version | Previous Version | Text Only | Print | Product List | Glossary On
Versions: 1 2 3 4 5 6 7 8 9 10 11 12 13 14 15 16 17 18 19 20 21 22 23 24 25 26 27
000
ASUS42 KCAE 291010
RWRCAE
REGIONAL WEATHER ROUNDUP
NATIONAL WEATHER SERVICE COLUMBIA SC
600 AM EDT THU SEP 29 2016

NOTE: "FAIR" INDICATES FEW OR NO CLOUDS BELOW 12,000 FEET WITH NO
SIGNIFICANT WEATHER AND/OR OBSTRUCTIONS TO VISIBILITY.

NOT ALL STATIONS ARE QUALITY CONTROLLED BY THE NATIONAL
WEATHER SERVICE. USE DATA WITH CAUTION...ESPECIALLY
DEWPOINT OBSERVATIONS.

SCZ001>056-GAZ040-063>065-077-291100-
...UPSTATE SOUTH CAROLINA...

CITY           SKY/WX    TMP DP  RH WIND       PRES   REMARKS
ANDERSON       CLEAR     58  56  93 CALM      29.90S
LIBERTY        SUNNY     51  50  97 CALM      29.90F
SPARTANBURG    CLEAR     55  54  94 CALM      29.90S
CLEMSON        CLEAR     59  55  87 CALM      29.92R
GREENVILLE     CLEAR     59  52  77 N10       29.92R
GREENWOOD      CLEAR     63  59  87 SW6       29.91S
GREER          CLEAR     59  53  80 N6        29.91R
ROCK HILL      FOG       66  65  96 CALM      29.92R VSB 1
CHESTER        FOG       64  64 100 CALM      29.91R VSB 1/2
LAURENS        MOSUNNY   61  61 100 SW5       29.90S


...CENTRAL SOUTH CAROLINA...

CITY           SKY/WX    TMP DP  RH WIND       PRES   REMARKS
COLUMBIA APT   CLEAR     72  69  90 CALM      29.89R
COLUMBIA OWENS CLEAR     72  69  90 CALM      29.91R
ORANGEBURG     CLEAR     71  70  96 S3        29.91R
NEWBERRY       SUNNY     68  68 100 S5        29.93R
AIKEN          PTSUNNY   68  66  94 CALM      29.94S
MANNING        FAIR      73  72  94 S3        29.92R
LANCASTER      MOSUNNY   68  68 100 CALM      29.91S FOG
WINNSBORO      FOG       70  68  94 SE5       29.90S VSB 1/2


...EASTERN AND COASTAL SOUTH CAROLINA...

CITY           SKY/WX    TMP DP  RH WIND       PRES   REMARKS
MYRTLE BEACH   PTCLDY    81  68  65 S9        29.95S
N MYRTLE BCH   PTCLDY    80  74  81 S8        29.93S
CONWAY         PTSUNNY   75  73  94 S5        29.93S
MARION         TSTM      73  72  94 S7        29.92S
HARTSVILLE     PTSUNNY   70  70 100 CALM      29.91S
FLORENCE       CLOUDY    75  73  93 S3        29.91S
DARLINGTON     CLOUDY    74  73  97 S5        29.91S
CHARLESTON APT PTCLDY    75  72  90 S7        29.92S
MOUNT PLEASANT FAIR      77  73  88 CALM      29.93S
WALTERBORO     PTSUNNY   75 N/A N/A CALM      29.93S
BEAUFORT       PTCLDY    75  72  90 SW6       29.92S


...EASTERN GEORGIA...

CITY           SKY/WX    TMP DP  RH WIND       PRES   REMARKS
AUGUSTA BUSH F CLOUDY    70  68  93 CALM      29.90R
AUGUSTA DANIEL CLEAR     72  65  78 VRB3      29.91S
THOMSON        CLEAR     66  65  94 CALM      29.95S
WASHINGTON     FAIR      63  55  77 CALM      29.91S
CLAXTON        FAIR      71  71 100 CALM      29.93R FOG
STATESBORO     CLEAR     73  73 100 CALM      29.92S
SAVANNAH       PTCLDY    73  70  90 SW3       29.93R


...SOUTHERN NORTH CAROLINA...

CITY           SKY/WX    TMP DP  RH WIND       PRES   REMARKS
CHARLOTTE      CLOUDY    69  66  90 CALM      29.92R
MONROE         MOCLDY    66  65  96 CALM      29.91R FOG
WADESBORO      PTSUNNY   67  65  94 CALM      29.91S FOG
RUTHERFORDTON  MOCLDY    61  61 100 N6        29.94S
ASHEVILLE      CLEAR     53  49  86 CALM      29.98S

$$




USA.gov is the U.S. government's official web portal to all federal, state and local government web resources and services.